This is the latest recevied weather packets stored in our database for station/object KB1PVH-13. If no packets are shown the sender has not sent any weather packets the latest 10 day(s).
| Time | Temp. | Humidity | Pressure | Rain* | Wind** | Luminosity | Snow |
|---|---|---|---|---|---|---|---|
| 1777576818 | 11.67° C | 87% | 921.9 hPa | 0 mm | - | - | - |
| 1777576218 | 12.22° C | 85% | 921.9 hPa | 0 mm | - | - | - |
| 1777575018 | 12.22° C | 87% | 922 hPa | 0 mm | - | - | - |
| 1777574416 | 12.22° C | 88% | 921.9 hPa | 0 mm | - | - | - |
| 1777572617 | 12.22° C | 84% | 922 hPa | 0 mm | - | - | - |
| 1777572016 | 12.22° C | 86% | 922.1 hPa | 0 mm | - | - | - |
| 1777560016 | 8.89° C | 93% | 923.4 hPa | 0.51 mm | - | - | - |
| 1777554657 | 8.33° C | 94% | 924.1 hPa | 1.02 mm | - | - | - |
| 1777552817 | 8.33° C | 94% | 924.1 hPa | 0.51 mm | - | - | - |
| 1777552217 | 8.33° C | 94% | 924.1 hPa | 0.51 mm | - | - | - |
| 1777551016 | 8.33° C | 93% | 924.2 hPa | 0 mm | - | - | - |
| 1777550417 | 8.33° C | 94% | 924.2 hPa | 0 mm | - | - | - |
| 1777548616 | 7.78° C | 94% | 924.2 hPa | 0 mm | - | - | - |
| 1777545616 | 7.78° C | 95% | 924.1 hPa | 0 mm | - | - | - |
| 1777541416 | 7.78° C | 95% | 924.2 hPa | 0.76 mm | - | - | - |
| 1777536617 | 7.78° C | 94% | 924.3 hPa | 1.52 mm | - | - | - |
| 1777532417 | 7.78° C | 94% | 926 hPa | 0 mm | - | - | - |
| 1777530617 | 7.78° C | 94% | 926 hPa | 0 mm | - | - | - |
| 1777530017 | 7.78° C | 94% | 926 hPa | 0 mm | - | - | - |
| 1777519838 | 7.78° C | 92% | 927.7 hPa | 0 mm | - | - | - |
| 1777519217 | 7.78° C | 92% | 927.8 hPa | 0 mm | - | - | - |
| 1777513817 | 8.33° C | 87% | 928.9 hPa | 0 mm | - | - | - |
| 1777510817 | 8.33° C | 84% | 928.7 hPa | 0 mm | - | - | - |
| 1777506617 | 10° C | 77% | 928.5 hPa | 0 mm | - | - | - |
| 1777506017 | 10.56° C | 76% | 928.3 hPa | 0 mm | - | - | - |
* Rain latest hour (hover to see other rain measurements)
** Current wind speed in m/s (hover to see current wind gust speed)